#datetime,building,power
2024-03-03T00:00:00,axn,26.86
2024-03-03T00:01:00,axn,26.29
2024-03-03T00:02:00,axn,26.23
2024-03-03T00:03:00,axn,26.26
2024-03-03T00:04:00,axn,26.61
2024-03-03T00:05:00,axn,26.20
2024-03-03T00:06:00,axn,26.97
2024-03-03T00:07:00,axn,26.32
2024-03-03T00:08:00,axn,26.61
2024-03-03T00:09:00,axn,26.30
2024-03-03T00:10:00,axn,26.18
2024-03-03T00:11:00,axn,29.01
2024-03-03T00:12:00,axn,26.39
2024-03-03T00:13:00,axn,26.60
2024-03-03T00:14:00,axn,26.85
2024-03-03T00:15:00,axn,26.82
2024-03-03T00:16:00,axn,26.92
2024-03-03T00:17:00,axn,26.65
2024-03-03T00:18:00,axn,26.43
2024-03-03T00:19:00,axn,26.20
2024-03-03T00:20:00,axn,25.97
2024-03-03T00:21:00,axn,25.98
2024-03-03T00:22:00,axn,25.75
2024-03-03T00:23:00,axn,25.75
2024-03-03T00:24:00,axn,26.31
2024-03-03T00:25:00,axn,25.57
2024-03-03T00:26:00,axn,25.57
2024-03-03T00:27:00,axn,25.63
2024-03-03T00:28:00,axn,25.47
2024-03-03T00:29:00,axn,25.64
2024-03-03T00:30:00,axn,26.06
2024-03-03T00:31:00,axn,25.55
2024-03-03T00:32:00,axn,25.60
2024-03-03T00:33:00,axn,25.75
2024-03-03T00:34:00,axn,25.52
2024-03-03T00:35:00,axn,26.08
2024-03-03T00:36:00,axn,25.62
2024-03-03T00:37:00,axn,25.43
2024-03-03T00:38:00,axn,40.00
2024-03-03T00:39:00,axn,40.31
2024-03-03T00:40:00,axn,39.88
2024-03-03T00:41:00,axn,40.01
2024-03-03T00:42:00,axn,39.77
2024-03-03T00:43:00,axn,25.72
2024-03-03T00:44:00,axn,25.50
2024-03-03T00:45:00,axn,25.65
2024-03-03T00:46:00,axn,25.72
2024-03-03T00:47:00,axn,25.59
2024-03-03T00:48:00,axn,25.60
2024-03-03T00:49:00,axn,25.48
2024-03-03T00:50:00,axn,25.67
2024-03-03T00:51:00,axn,25.51
2024-03-03T00:52:00,axn,25.25
2024-03-03T00:53:00,axn,25.42
2024-03-03T00:54:00,axn,25.89
2024-03-03T00:55:00,axn,25.91
2024-03-03T00:56:00,axn,25.61
2024-03-03T00:57:00,axn,25.13
2024-03-03T00:58:00,axn,25.13
2024-03-03T00:59:00,axn,25.13
2024-03-03T01:00:00,axn,25.19
2024-03-03T01:01:00,axn,25.12
2024-03-03T01:02:00,axn,25.23
2024-03-03T01:03:00,axn,25.03
2024-03-03T01:04:00,axn,25.37
2024-03-03T01:05:00,axn,25.34
2024-03-03T01:06:00,axn,25.10
2024-03-03T01:07:00,axn,25.25
2024-03-03T01:08:00,axn,25.15
2024-03-03T01:09:00,axn,25.12
2024-03-03T01:10:00,axn,25.05
2024-03-03T01:11:00,axn,25.50
2024-03-03T01:12:00,axn,25.26
2024-03-03T01:13:00,axn,25.21
2024-03-03T01:14:00,axn,25.06
2024-03-03T01:15:00,axn,25.19
2024-03-03T01:16:00,axn,25.28
2024-03-03T01:17:00,axn,25.53
2024-03-03T01:18:00,axn,25.14
2024-03-03T01:19:00,axn,25.55
2024-03-03T01:20:00,axn,25.60
2024-03-03T01:21:00,axn,25.62
2024-03-03T01:22:00,axn,25.33
2024-03-03T01:23:00,axn,25.39
2024-03-03T01:24:00,axn,25.70
2024-03-03T01:25:00,axn,25.59
2024-03-03T01:26:00,axn,25.57
2024-03-03T01:27:00,axn,25.26
2024-03-03T01:28:00,axn,25.50
2024-03-03T01:29:00,axn,25.33
2024-03-03T01:30:00,axn,25.77
2024-03-03T01:31:00,axn,25.23
2024-03-03T01:32:00,axn,25.68
2024-03-03T01:33:00,axn,24.91
2024-03-03T01:34:00,axn,25.20
2024-03-03T01:35:00,axn,25.11
2024-03-03T01:36:00,axn,26.51
2024-03-03T01:37:00,axn,25.46
2024-03-03T01:38:00,axn,25.12
2024-03-03T01:39:00,axn,25.18
2024-03-03T01:40:00,axn,25.09
2024-03-03T01:41:00,axn,25.43
2024-03-03T01:42:00,axn,25.45
2024-03-03T01:43:00,axn,25.31
2024-03-03T01:44:00,axn,25.79
2024-03-03T01:45:00,axn,26.34
2024-03-03T01:46:00,axn,26.05
2024-03-03T01:47:00,axn,25.92
2024-03-03T01:48:00,axn,25.60
2024-03-03T01:49:00,axn,25.33
2024-03-03T01:50:00,axn,25.78
2024-03-03T01:51:00,axn,25.68
2024-03-03T01:52:00,axn,25.49
2024-03-03T01:53:00,axn,25.56
2024-03-03T01:54:00,axn,25.52
2024-03-03T01:55:00,axn,25.68
2024-03-03T01:56:00,axn,25.79
2024-03-03T01:57:00,axn,25.94
2024-03-03T01:58:00,axn,25.67
2024-03-03T01:59:00,axn,25.83
2024-03-03T02:00:00,axn,25.70
2024-03-03T02:01:00,axn,25.70
2024-03-03T02:02:00,axn,25.88
2024-03-03T02:03:00,axn,26.01
2024-03-03T02:04:00,axn,26.14
2024-03-03T02:05:00,axn,25.79
2024-03-03T02:06:00,axn,25.89
2024-03-03T02:07:00,axn,25.95
2024-03-03T02:08:00,axn,25.87
2024-03-03T02:09:00,axn,25.91
2024-03-03T02:10:00,axn,25.83
2024-03-03T02:11:00,axn,25.76
2024-03-03T02:12:00,axn,25.67
2024-03-03T02:13:00,axn,25.55
2024-03-03T02:14:00,axn,25.92
2024-03-03T02:15:00,axn,25.88
2024-03-03T02:16:00,axn,25.54
2024-03-03T02:17:00,axn,25.66
2024-03-03T02:18:00,axn,25.61
2024-03-03T02:19:00,axn,25.70
2024-03-03T02:20:00,axn,25.74
2024-03-03T02:21:00,axn,25.86
2024-03-03T02:22:00,axn,25.69
2024-03-03T02:23:00,axn,25.62
2024-03-03T02:24:00,axn,25.63
2024-03-03T02:25:00,axn,25.77
2024-03-03T02:26:00,axn,25.65
2024-03-03T02:27:00,axn,25.85
2024-03-03T02:28:00,axn,25.75
2024-03-03T02:29:00,axn,25.76
2024-03-03T02:30:00,axn,26.08
2024-03-03T02:31:00,axn,25.78
2024-03-03T02:32:00,axn,25.37
2024-03-03T02:33:00,axn,25.46
2024-03-03T02:34:00,axn,25.49
2024-03-03T02:35:00,axn,25.57
2024-03-03T02:36:00,axn,25.58
2024-03-03T02:37:00,axn,25.79
2024-03-03T02:38:00,axn,26.21
2024-03-03T02:39:00,axn,25.59
2024-03-03T02:40:00,axn,25.51
2024-03-03T02:41:00,axn,25.46
2024-03-03T02:42:00,axn,25.63
2024-03-03T02:43:00,axn,25.73
2024-03-03T02:44:00,axn,25.78
2024-03-03T02:45:00,axn,25.44
2024-03-03T02:46:00,axn,25.46
2024-03-03T02:47:00,axn,25.48
2024-03-03T02:48:00,axn,25.53
2024-03-03T02:49:00,axn,25.69
2024-03-03T02:50:00,axn,25.52
2024-03-03T02:51:00,axn,25.52
2024-03-03T02:52:00,axn,25.46
2024-03-03T02:53:00,axn,25.50
2024-03-03T02:54:00,axn,25.46
2024-03-03T02:55:00,axn,25.48
2024-03-03T02:56:00,axn,25.73
2024-03-03T02:57:00,axn,25.72
2024-03-03T02:58:00,axn,25.73
2024-03-03T02:59:00,axn,25.47
2024-03-03T03:00:00,axn,25.45
2024-03-03T03:01:00,axn,25.57
2024-03-03T03:02:00,axn,25.38
2024-03-03T03:03:00,axn,25.65
2024-03-03T03:04:00,axn,25.47
2024-03-03T03:05:00,axn,25.29
2024-03-03T03:06:00,axn,25.29
2024-03-03T03:07:00,axn,25.36
2024-03-03T03:08:00,axn,25.76
2024-03-03T03:09:00,axn,25.36
2024-03-03T03:10:00,axn,25.70
2024-03-03T03:11:00,axn,25.58
2024-03-03T03:12:00,axn,28.61
2024-03-03T03:13:00,axn,25.88
2024-03-03T03:14:00,axn,25.89
2024-03-03T03:15:00,axn,25.67
2024-03-03T03:16:00,axn,25.71
2024-03-03T03:17:00,axn,25.81
2024-03-03T03:18:00,axn,25.60
2024-03-03T03:19:00,axn,25.97
2024-03-03T03:20:00,axn,25.62
2024-03-03T03:21:00,axn,25.57
2024-03-03T03:22:00,axn,25.69
2024-03-03T03:23:00,axn,25.82
2024-03-03T03:24:00,axn,25.66
2024-03-03T03:25:00,axn,25.75
2024-03-03T03:26:00,axn,25.55
2024-03-03T03:27:00,axn,25.69
2024-03-03T03:28:00,axn,25.52
2024-03-03T03:29:00,axn,25.62
2024-03-03T03:30:00,axn,25.51
2024-03-03T03:31:00,axn,25.54
2024-03-03T03:32:00,axn,26.08
2024-03-03T03:33:00,axn,25.42
2024-03-03T03:34:00,axn,25.28
2024-03-03T03:35:00,axn,25.15
2024-03-03T03:36:00,axn,25.12
2024-03-03T03:37:00,axn,25.46
2024-03-03T03:38:00,axn,25.19
2024-03-03T03:39:00,axn,37.56
2024-03-03T03:40:00,axn,25.19
2024-03-03T03:41:00,axn,25.34
2024-03-03T03:42:00,axn,25.52
2024-03-03T03:43:00,axn,25.24
2024-03-03T03:44:00,axn,25.25
2024-03-03T03:45:00,axn,25.33
2024-03-03T03:46:00,axn,25.27
2024-03-03T03:47:00,axn,25.25
2024-03-03T03:48:00,axn,25.19
2024-03-03T03:49:00,axn,25.22
2024-03-03T03:50:00,axn,25.75
2024-03-03T03:51:00,axn,26.13
2024-03-03T03:52:00,axn,25.32
2024-03-03T03:53:00,axn,25.33
2024-03-03T03:54:00,axn,25.28
2024-03-03T03:55:00,axn,25.23
2024-03-03T03:56:00,axn,25.14
2024-03-03T03:57:00,axn,25.18
2024-03-03T03:58:00,axn,25.18
2024-03-03T03:59:00,axn,25.19
2024-03-03T04:00:00,axn,25.19
2024-03-03T04:01:00,axn,25.41
2024-03-03T04:02:00,axn,25.48
2024-03-03T04:03:00,axn,25.07
2024-03-03T04:04:00,axn,25.29
2024-03-03T04:05:00,axn,25.15
2024-03-03T04:06:00,axn,25.23
2024-03-03T04:07:00,axn,25.26
2024-03-03T04:08:00,axn,25.12
2024-03-03T04:09:00,axn,25.07
2024-03-03T04:10:00,axn,25.13
2024-03-03T04:11:00,axn,25.52
2024-03-03T04:12:00,axn,25.06
2024-03-03T04:13:00,axn,24.74
2024-03-03T04:14:00,axn,24.93
2024-03-03T04:15:00,axn,24.52
2024-03-03T04:16:00,axn,24.52
2024-03-03T04:17:00,axn,24.63
2024-03-03T04:18:00,axn,24.53
2024-03-03T04:19:00,axn,24.48
2024-03-03T04:20:00,axn,24.43
2024-03-03T04:21:00,axn,24.50
2024-03-03T04:22:00,axn,30.36
2024-03-03T04:23:00,axn,30.72
2024-03-03T04:24:00,axn,30.40
2024-03-03T04:25:00,axn,24.69
2024-03-03T04:26:00,axn,24.94
2024-03-03T04:27:00,axn,25.26
2024-03-03T04:28:00,axn,25.33
2024-03-03T04:29:00,axn,24.89
2024-03-03T04:30:00,axn,24.76
2024-03-03T04:31:00,axn,24.75
2024-03-03T04:32:00,axn,24.77
2024-03-03T04:33:00,axn,24.79
2024-03-03T04:34:00,axn,25.43
2024-03-03T04:35:00,axn,24.90
2024-03-03T04:36:00,axn,24.81
2024-03-03T04:37:00,axn,24.65
2024-03-03T04:38:00,axn,24.66
2024-03-03T04:39:00,axn,24.95
2024-03-03T04:40:00,axn,25.30
2024-03-03T04:41:00,axn,25.60
2024-03-03T04:42:00,axn,25.80
2024-03-03T04:43:00,axn,25.58
2024-03-03T04:44:00,axn,25.78
2024-03-03T04:45:00,axn,36.03
2024-03-03T04:46:00,axn,35.98
2024-03-03T04:47:00,axn,35.95
2024-03-03T04:48:00,axn,35.29
2024-03-03T04:49:00,axn,25.51
2024-03-03T04:50:00,axn,25.37
2024-03-03T04:51:00,axn,25.40
2024-03-03T04:52:00,axn,25.66
2024-03-03T04:53:00,axn,25.29
2024-03-03T04:54:00,axn,25.39
2024-03-03T04:55:00,axn,25.51
2024-03-03T04:56:00,axn,25.12
2024-03-03T04:57:00,axn,25.13
2024-03-03T04:58:00,axn,25.15
2024-03-03T04:59:00,axn,25.02
2024-03-03T05:00:00,axn,25.28
2024-03-03T05:01:00,axn,27.80
2024-03-03T05:02:00,axn,35.77
2024-03-03T05:03:00,axn,38.25
2024-03-03T05:04:00,axn,38.23
2024-03-03T05:05:00,axn,38.33
2024-03-03T05:06:00,axn,38.20
2024-03-03T05:07:00,axn,37.65
2024-03-03T05:08:00,axn,37.75
2024-03-03T05:09:00,axn,37.36
2024-03-03T05:10:00,axn,36.93
2024-03-03T05:11:00,axn,36.51
2024-03-03T05:12:00,axn,32.29
2024-03-03T05:13:00,axn,32.16
2024-03-03T05:14:00,axn,32.73
2024-03-03T05:15:00,axn,32.70
2024-03-03T05:16:00,axn,32.71
2024-03-03T05:17:00,axn,32.53
2024-03-03T05:18:00,axn,32.54
2024-03-03T05:19:00,axn,31.94
2024-03-03T05:20:00,axn,31.77
2024-03-03T05:21:00,axn,32.34
2024-03-03T05:22:00,axn,32.68
2024-03-03T05:23:00,axn,33.65
2024-03-03T05:24:00,axn,32.91
2024-03-03T05:25:00,axn,32.81
2024-03-03T05:26:00,axn,32.96
2024-03-03T05:27:00,axn,33.37
2024-03-03T05:28:00,axn,33.26
2024-03-03T05:29:00,axn,33.28
2024-03-03T05:30:00,axn,33.34
2024-03-03T05:31:00,axn,39.52
2024-03-03T05:32:00,axn,34.92
2024-03-03T05:33:00,axn,34.91
2024-03-03T05:34:00,axn,35.10
2024-03-03T05:35:00,axn,49.52
2024-03-03T05:36:00,axn,49.23
2024-03-03T05:37:00,axn,49.59
2024-03-03T05:38:00,axn,50.04
2024-03-03T05:39:00,axn,49.75
2024-03-03T05:40:00,axn,49.89
2024-03-03T05:41:00,axn,41.80
2024-03-03T05:42:00,axn,41.98
2024-03-03T05:43:00,axn,36.36
2024-03-03T05:44:00,axn,36.09
2024-03-03T05:45:00,axn,35.05
2024-03-03T05:46:00,axn,34.64
2024-03-03T05:47:00,axn,33.62
2024-03-03T05:48:00,axn,34.17
2024-03-03T05:49:00,axn,34.33
2024-03-03T05:50:00,axn,35.00
2024-03-03T05:51:00,axn,35.28
2024-03-03T05:52:00,axn,35.36
2024-03-03T05:53:00,axn,34.65
2024-03-03T05:54:00,axn,33.94
2024-03-03T05:55:00,axn,33.74
2024-03-03T05:56:00,axn,33.91
2024-03-03T05:57:00,axn,33.95
2024-03-03T05:58:00,axn,33.29
2024-03-03T05:59:00,axn,33.11
2024-03-03T06:00:00,axn,37.43
2024-03-03T06:01:00,axn,33.05
2024-03-03T06:02:00,axn,33.68
2024-03-03T06:03:00,axn,33.93
2024-03-03T06:04:00,axn,33.74
2024-03-03T06:05:00,axn,33.59
2024-03-03T06:06:00,axn,36.48
2024-03-03T06:07:00,axn,36.31
2024-03-03T06:08:00,axn,33.35
2024-03-03T06:09:00,axn,33.39
2024-03-03T06:10:00,axn,33.02
2024-03-03T06:11:00,axn,32.48
2024-03-03T06:12:00,axn,32.97
2024-03-03T06:13:00,axn,33.34
2024-03-03T06:14:00,axn,33.33
2024-03-03T06:15:00,axn,33.88
2024-03-03T06:16:00,axn,33.38
2024-03-03T06:17:00,axn,33.15
2024-03-03T06:18:00,axn,32.60
2024-03-03T06:19:00,axn,32.59
2024-03-03T06:20:00,axn,32.68
2024-03-03T06:21:00,axn,32.93
2024-03-03T06:22:00,axn,33.04
2024-03-03T06:23:00,axn,31.74
2024-03-03T06:24:00,axn,31.86
2024-03-03T06:25:00,axn,32.04
2024-03-03T06:26:00,axn,32.64
2024-03-03T06:27:00,axn,32.94
2024-03-03T06:28:00,axn,32.60
2024-03-03T06:29:00,axn,32.09
2024-03-03T06:30:00,axn,36.35
2024-03-03T06:31:00,axn,36.24
2024-03-03T06:32:00,axn,31.86
2024-03-03T06:33:00,axn,31.89
2024-03-03T06:34:00,axn,31.56
2024-03-03T06:35:00,axn,31.32
2024-03-03T06:36:00,axn,31.98
2024-03-03T06:37:00,axn,31.49
2024-03-03T06:38:00,axn,31.83
2024-03-03T06:39:00,axn,31.93
2024-03-03T06:40:00,axn,31.77
2024-03-03T06:41:00,axn,31.75
2024-03-03T06:42:00,axn,31.34
2024-03-03T06:43:00,axn,31.47
2024-03-03T06:44:00,axn,31.52
2024-03-03T06:45:00,axn,31.56
2024-03-03T06:46:00,axn,31.39
2024-03-03T06:47:00,axn,31.17
2024-03-03T06:48:00,axn,30.86
2024-03-03T06:49:00,axn,31.24
2024-03-03T06:50:00,axn,32.27
2024-03-03T06:51:00,axn,32.03
2024-03-03T06:52:00,axn,31.75
2024-03-03T06:53:00,axn,31.64
2024-03-03T06:54:00,axn,31.23
2024-03-03T06:55:00,axn,31.78
2024-03-03T06:56:00,axn,31.98
2024-03-03T06:57:00,axn,32.05
2024-03-03T06:58:00,axn,32.23
2024-03-03T06:59:00,axn,32.58
2024-03-03T07:00:00,axn,32.07
2024-03-03T07:01:00,axn,31.75
2024-03-03T07:02:00,axn,38.08
2024-03-03T07:03:00,axn,38.91
2024-03-03T07:04:00,axn,34.36
2024-03-03T07:05:00,axn,33.62
2024-03-03T07:06:00,axn,34.30
2024-03-03T07:07:00,axn,34.46
2024-03-03T07:08:00,axn,33.72
2024-03-03T07:09:00,axn,34.30
2024-03-03T07:10:00,axn,34.44
2024-03-03T07:11:00,axn,34.38
2024-03-03T07:12:00,axn,34.02
2024-03-03T07:13:00,axn,34.47
2024-03-03T07:14:00,axn,34.49
2024-03-03T07:15:00,axn,35.01
2024-03-03T07:16:00,axn,34.95
2024-03-03T07:17:00,axn,49.04
2024-03-03T07:18:00,axn,34.77
2024-03-03T07:19:00,axn,34.92
2024-03-03T07:20:00,axn,36.11
2024-03-03T07:21:00,axn,35.08
2024-03-03T07:22:00,axn,34.78
2024-03-03T07:23:00,axn,34.57
2024-03-03T07:24:00,axn,34.75
2024-03-03T07:25:00,axn,35.16
2024-03-03T07:26:00,axn,35.00
2024-03-03T07:27:00,axn,35.11
2024-03-03T07:28:00,axn,34.72
2024-03-03T07:29:00,axn,35.12
2024-03-03T07:30:00,axn,35.07
2024-03-03T07:31:00,axn,35.59
2024-03-03T07:32:00,axn,34.86
2024-03-03T07:33:00,axn,35.30
2024-03-03T07:34:00,axn,39.42
2024-03-03T07:35:00,axn,34.77
2024-03-03T07:36:00,axn,34.84
2024-03-03T07:37:00,axn,35.25
2024-03-03T07:38:00,axn,35.11
2024-03-03T07:39:00,axn,35.12
2024-03-03T07:40:00,axn,35.39
2024-03-03T07:41:00,axn,35.05
2024-03-03T07:42:00,axn,35.00
2024-03-03T07:43:00,axn,35.21
2024-03-03T07:44:00,axn,35.13
2024-03-03T07:45:00,axn,35.18
2024-03-03T07:46:00,axn,35.64
2024-03-03T07:47:00,axn,35.02
2024-03-03T07:48:00,axn,34.78
2024-03-03T07:49:00,axn,35.08
2024-03-03T07:50:00,axn,35.35
2024-03-03T07:51:00,axn,34.88
2024-03-03T07:52:00,axn,35.05
2024-03-03T07:53:00,axn,35.18
2024-03-03T07:54:00,axn,37.17
2024-03-03T07:55:00,axn,37.33
2024-03-03T07:56:00,axn,36.87
2024-03-03T07:57:00,axn,34.96
2024-03-03T07:58:00,axn,35.03
2024-03-03T07:59:00,axn,35.23
2024-03-03T08:00:00,axn,35.02
2024-03-03T08:01:00,axn,36.48
2024-03-03T08:02:00,axn,36.60
2024-03-03T08:03:00,axn,36.90
2024-03-03T08:04:00,axn,41.28
2024-03-03T08:05:00,axn,41.08
2024-03-03T08:06:00,axn,36.51
2024-03-03T08:07:00,axn,37.97
2024-03-03T08:08:00,axn,36.71
2024-03-03T08:09:00,axn,36.56
2024-03-03T08:10:00,axn,36.55
2024-03-03T08:11:00,axn,36.56
2024-03-03T08:12:00,axn,36.42
2024-03-03T08:13:00,axn,36.23
2024-03-03T08:14:00,axn,36.51
2024-03-03T08:15:00,axn,36.17
2024-03-03T08:16:00,axn,36.02
2024-03-03T08:17:00,axn,35.90
2024-03-03T08:18:00,axn,36.36
2024-03-03T08:19:00,axn,36.09
2024-03-03T08:20:00,axn,35.84
2024-03-03T08:21:00,axn,36.51
2024-03-03T08:22:00,axn,36.75
2024-03-03T08:23:00,axn,36.01
2024-03-03T08:24:00,axn,35.77
2024-03-03T08:25:00,axn,36.96
2024-03-03T08:26:00,axn,36.66
2024-03-03T08:27:00,axn,36.26
2024-03-03T08:28:00,axn,36.02
2024-03-03T08:29:00,axn,38.75
2024-03-03T08:30:00,axn,36.05
2024-03-03T08:31:00,axn,36.22
2024-03-03T08:32:00,axn,36.48
2024-03-03T08:33:00,axn,36.08
2024-03-03T08:34:00,axn,35.98
2024-03-03T08:35:00,axn,35.97
2024-03-03T08:36:00,axn,41.10
2024-03-03T08:37:00,axn,36.43
2024-03-03T08:38:00,axn,37.14
2024-03-03T08:39:00,axn,36.59
2024-03-03T08:40:00,axn,36.61
2024-03-03T08:41:00,axn,36.73
2024-03-03T08:42:00,axn,37.16
2024-03-03T08:43:00,axn,36.60
2024-03-03T08:44:00,axn,36.62
2024-03-03T08:45:00,axn,36.48
2024-03-03T08:46:00,axn,36.48
2024-03-03T08:47:00,axn,36.58
2024-03-03T08:48:00,axn,36.35
2024-03-03T08:49:00,axn,36.70
2024-03-03T08:50:00,axn,36.57
2024-03-03T08:51:00,axn,36.66
2024-03-03T08:52:00,axn,37.36
2024-03-03T08:53:00,axn,36.55
2024-03-03T08:54:00,axn,36.40
2024-03-03T08:55:00,axn,36.49
2024-03-03T08:56:00,axn,36.73
2024-03-03T08:57:00,axn,36.45
2024-03-03T08:58:00,axn,41.18
2024-03-03T08:59:00,axn,36.03
2024-03-03T09:00:00,axn,35.91
2024-03-03T09:01:00,axn,36.18
2024-03-03T09:02:00,axn,36.25
2024-03-03T09:03:00,axn,36.54
2024-03-03T09:04:00,axn,36.67
2024-03-03T09:05:00,axn,40.65
2024-03-03T09:06:00,axn,38.26
2024-03-03T09:07:00,axn,40.31
2024-03-03T09:08:00,axn,39.51
2024-03-03T09:09:00,axn,37.87
2024-03-03T09:10:00,axn,37.64
2024-03-03T09:11:00,axn,36.02
2024-03-03T09:12:00,axn,36.27
2024-03-03T09:13:00,axn,37.17
2024-03-03T09:14:00,axn,35.81
2024-03-03T09:15:00,axn,36.93
2024-03-03T09:16:00,axn,35.99
2024-03-03T09:17:00,axn,36.09
2024-03-03T09:18:00,axn,35.87
2024-03-03T09:19:00,axn,36.12
2024-03-03T09:20:00,axn,35.79
2024-03-03T09:21:00,axn,36.96
2024-03-03T09:22:00,axn,35.73
2024-03-03T09:23:00,axn,51.26
2024-03-03T09:24:00,axn,46.63
2024-03-03T09:25:00,axn,45.77
2024-03-03T09:26:00,axn,45.90
2024-03-03T09:27:00,axn,46.11
2024-03-03T09:28:00,axn,35.76
2024-03-03T09:29:00,axn,35.46
2024-03-03T09:30:00,axn,34.89
2024-03-03T09:31:00,axn,34.90
2024-03-03T09:32:00,axn,35.42
2024-03-03T09:33:00,axn,34.62
2024-03-03T09:34:00,axn,39.57
2024-03-03T09:35:00,axn,39.39
2024-03-03T09:36:00,axn,36.56
2024-03-03T09:37:00,axn,36.12
2024-03-03T09:38:00,axn,35.48
2024-03-03T09:39:00,axn,35.35
2024-03-03T09:40:00,axn,35.66
2024-03-03T09:41:00,axn,35.77
2024-03-03T09:42:00,axn,35.92
2024-03-03T09:43:00,axn,35.73
2024-03-03T09:44:00,axn,35.90
2024-03-03T09:45:00,axn,36.87
2024-03-03T09:46:00,axn,35.76
2024-03-03T09:47:00,axn,35.91
2024-03-03T09:48:00,axn,35.82
2024-03-03T09:49:00,axn,35.92
2024-03-03T09:50:00,axn,35.79
2024-03-03T09:51:00,axn,36.08
2024-03-03T09:52:00,axn,35.49
2024-03-03T09:53:00,axn,35.52
2024-03-03T09:54:00,axn,35.88
2024-03-03T09:55:00,axn,35.49
2024-03-03T09:56:00,axn,35.33
2024-03-03T09:57:00,axn,35.43
2024-03-03T09:58:00,axn,35.57
2024-03-03T09:59:00,axn,35.82
2024-03-03T10:00:00,axn,35.72
2024-03-03T10:01:00,axn,36.00
2024-03-03T10:02:00,axn,36.02
2024-03-03T10:03:00,axn,36.39
2024-03-03T10:04:00,axn,36.09
2024-03-03T10:05:00,axn,40.49
2024-03-03T10:06:00,axn,40.57
2024-03-03T10:07:00,axn,36.44
2024-03-03T10:08:00,axn,36.96
2024-03-03T10:09:00,axn,36.18
2024-03-03T10:10:00,axn,35.72
2024-03-03T10:11:00,axn,35.63
2024-03-03T10:12:00,axn,35.30
2024-03-03T10:13:00,axn,35.05
2024-03-03T10:14:00,axn,35.27
2024-03-03T10:15:00,axn,35.65
2024-03-03T10:16:00,axn,35.50
2024-03-03T10:17:00,axn,35.55
2024-03-03T10:18:00,axn,35.39
2024-03-03T10:19:00,axn,35.47
2024-03-03T10:20:00,axn,35.72
2024-03-03T10:21:00,axn,35.60
2024-03-03T10:22:00,axn,35.48
2024-03-03T10:23:00,axn,35.58
2024-03-03T10:24:00,axn,36.52
2024-03-03T10:25:00,axn,36.93
2024-03-03T10:26:00,axn,35.73
2024-03-03T10:27:00,axn,36.36
2024-03-03T10:28:00,axn,36.88
2024-03-03T10:29:00,axn,36.56
2024-03-03T10:30:00,axn,36.20
2024-03-03T10:31:00,axn,36.14
2024-03-03T10:32:00,axn,36.51
2024-03-03T10:33:00,axn,36.15
2024-03-03T10:34:00,axn,36.11
2024-03-03T10:35:00,axn,36.34
2024-03-03T10:36:00,axn,40.68
2024-03-03T10:37:00,axn,40.68
2024-03-03T10:38:00,axn,36.17
2024-03-03T10:39:00,axn,36.45
2024-03-03T10:40:00,axn,36.44
2024-03-03T10:41:00,axn,36.57
2024-03-03T10:42:00,axn,36.53
2024-03-03T10:43:00,axn,36.88
2024-03-03T10:44:00,axn,36.58
2024-03-03T10:45:00,axn,36.61
2024-03-03T10:46:00,axn,36.21
2024-03-03T10:47:00,axn,36.18
2024-03-03T10:48:00,axn,36.64
2024-03-03T10:49:00,axn,50.66
2024-03-03T10:50:00,axn,50.65
2024-03-03T10:51:00,axn,51.05
2024-03-03T10:52:00,axn,50.93
2024-03-03T10:53:00,axn,50.69
2024-03-03T10:54:00,axn,36.62
2024-03-03T10:55:00,axn,37.04
2024-03-03T10:56:00,axn,36.54
2024-03-03T10:57:00,axn,36.53
2024-03-03T10:58:00,axn,36.16
2024-03-03T10:59:00,axn,36.30
2024-03-03T11:00:00,axn,36.06
2024-03-03T11:01:00,axn,35.93
2024-03-03T11:02:00,axn,36.01
2024-03-03T11:03:00,axn,36.16
2024-03-03T11:04:00,axn,36.20
2024-03-03T11:05:00,axn,36.18
2024-03-03T11:06:00,axn,36.11
2024-03-03T11:07:00,axn,40.44
2024-03-03T11:08:00,axn,40.25
2024-03-03T11:09:00,axn,35.92
2024-03-03T11:10:00,axn,35.72
2024-03-03T11:11:00,axn,35.46
2024-03-03T11:12:00,axn,35.86
2024-03-03T11:13:00,axn,35.80
2024-03-03T11:14:00,axn,36.01
2024-03-03T11:15:00,axn,36.16
2024-03-03T11:16:00,axn,36.04
2024-03-03T11:17:00,axn,36.60
2024-03-03T11:18:00,axn,36.20
2024-03-03T11:19:00,axn,36.23
2024-03-03T11:20:00,axn,35.87
2024-03-03T11:21:00,axn,36.73
2024-03-03T11:22:00,axn,35.79
2024-03-03T11:23:00,axn,35.88
2024-03-03T11:24:00,axn,35.89
2024-03-03T11:25:00,axn,36.33
2024-03-03T11:26:00,axn,36.39
2024-03-03T11:27:00,axn,36.78
2024-03-03T11:28:00,axn,36.36
2024-03-03T11:29:00,axn,36.02
2024-03-03T11:30:00,axn,36.66
2024-03-03T11:31:00,axn,36.42
2024-03-03T11:32:00,axn,36.08
2024-03-03T11:33:00,axn,36.57
2024-03-03T11:34:00,axn,36.24
2024-03-03T11:35:00,axn,36.51
2024-03-03T11:36:00,axn,36.08
2024-03-03T11:37:00,axn,35.83
2024-03-03T11:38:00,axn,41.00
2024-03-03T11:39:00,axn,40.98
2024-03-03T11:40:00,axn,36.56
2024-03-03T11:41:00,axn,36.36
2024-03-03T11:42:00,axn,36.14
2024-03-03T11:43:00,axn,36.46
2024-03-03T11:44:00,axn,36.25
2024-03-03T11:45:00,axn,36.10
2024-03-03T11:46:00,axn,35.94
2024-03-03T11:47:00,axn,36.02
2024-03-03T11:48:00,axn,36.00
2024-03-03T11:49:00,axn,36.00
2024-03-03T11:50:00,axn,41.78
2024-03-03T11:51:00,axn,42.12
2024-03-03T11:52:00,axn,41.60
2024-03-03T11:53:00,axn,36.33
2024-03-03T11:54:00,axn,36.15
2024-03-03T11:55:00,axn,35.99
2024-03-03T11:56:00,axn,36.60
2024-03-03T11:57:00,axn,36.08
2024-03-03T11:58:00,axn,36.03
2024-03-03T11:59:00,axn,36.05
2024-03-03T12:00:00,axn,36.11
2024-03-03T12:01:00,axn,36.23
2024-03-03T12:02:00,axn,36.14
2024-03-03T12:03:00,axn,36.22
2024-03-03T12:04:00,axn,36.36
2024-03-03T12:05:00,axn,36.52
2024-03-03T12:06:00,axn,37.18
2024-03-03T12:07:00,axn,37.44
2024-03-03T12:08:00,axn,37.93
2024-03-03T12:09:00,axn,42.84
2024-03-03T12:10:00,axn,42.33
2024-03-03T12:11:00,axn,37.80
2024-03-03T12:12:00,axn,38.14
2024-03-03T12:13:00,axn,41.25
2024-03-03T12:14:00,axn,38.04
2024-03-03T12:15:00,axn,37.98
2024-03-03T12:16:00,axn,38.15
2024-03-03T12:17:00,axn,37.38
2024-03-03T12:18:00,axn,37.37
2024-03-03T12:19:00,axn,37.21
2024-03-03T12:20:00,axn,37.55
2024-03-03T12:21:00,axn,38.02
2024-03-03T12:22:00,axn,38.55
2024-03-03T12:23:00,axn,37.62
2024-03-03T12:24:00,axn,37.70
2024-03-03T12:25:00,axn,38.46
2024-03-03T12:26:00,axn,37.76
2024-03-03T12:27:00,axn,37.49
2024-03-03T12:28:00,axn,38.55
2024-03-03T12:29:00,axn,37.71
2024-03-03T12:30:00,axn,38.06
2024-03-03T12:31:00,axn,38.18
2024-03-03T12:32:00,axn,38.28
2024-03-03T12:33:00,axn,38.51
2024-03-03T12:34:00,axn,39.20
2024-03-03T12:35:00,axn,38.32
2024-03-03T12:36:00,axn,38.52
2024-03-03T12:37:00,axn,37.94
2024-03-03T12:38:00,axn,38.13
2024-03-03T12:39:00,axn,38.08
2024-03-03T12:40:00,axn,42.54
2024-03-03T12:41:00,axn,42.81
2024-03-03T12:42:00,axn,38.61
2024-03-03T12:43:00,axn,38.55
2024-03-03T12:44:00,axn,38.71
2024-03-03T12:45:00,axn,38.59
2024-03-03T12:46:00,axn,38.28
2024-03-03T12:47:00,axn,38.21
2024-03-03T12:48:00,axn,38.26
2024-03-03T12:49:00,axn,38.15
2024-03-03T12:50:00,axn,38.99
2024-03-03T12:51:00,axn,38.36
2024-03-03T12:52:00,axn,38.64
2024-03-03T12:53:00,axn,38.38
2024-03-03T12:54:00,axn,38.35
2024-03-03T12:55:00,axn,38.42
2024-03-03T12:56:00,axn,39.00
2024-03-03T12:57:00,axn,39.16
2024-03-03T12:58:00,axn,38.74
2024-03-03T12:59:00,axn,39.54
2024-03-03T13:00:00,axn,39.74
2024-03-03T13:01:00,axn,39.13
2024-03-03T13:02:00,axn,38.69
2024-03-03T13:03:00,axn,38.54
2024-03-03T13:04:00,axn,38.50
2024-03-03T13:05:00,axn,38.61
2024-03-03T13:06:00,axn,38.93
2024-03-03T13:07:00,axn,38.81
2024-03-03T13:08:00,axn,39.19
2024-03-03T13:09:00,axn,39.12
2024-03-03T13:10:00,axn,39.03
2024-03-03T13:11:00,axn,43.29
2024-03-03T13:12:00,axn,43.23
2024-03-03T13:13:00,axn,38.75
2024-03-03T13:14:00,axn,38.87
2024-03-03T13:15:00,axn,38.84
2024-03-03T13:16:00,axn,39.42
2024-03-03T13:17:00,axn,38.76
2024-03-03T13:18:00,axn,39.57